User: anonymous   Login
Location: Sungai Bunut
(2.6333°N, 113.7333°E)
Time: 01:41:28
(UTC+00:00)
Language:

Ariane H10 - Orbit

View from above orbital plane
View from above orbital plane
View from above satellite
View from above satellite

Ground track
Ground track

The orbit data is extracted from the following two-line orbital elements,

1 21727U 91067B   22018.24686633  .00000105  00000-0  41291-3 0  9999
2 21727   4.7007   3.8539 7184659  74.5510 349.2112  2.32221516216891
Epoch (UTC): 18 January 2022 05:55:29
Eccentricity: 0.7184659
inclination: 4.7007°
perigee height: 403 km
apogee height: 35016 km
right ascension of ascending node: 3.8539°
argument of perigee: 74.5510°
revolutions per day: 2.32221516
mean anomaly at epoch: 349.2112°
orbit number at epoch: 21689

The dashed part of the orbit path shows where the satellite is in the earth's shadow,  

DLR